Location: Libas
(9.8833°N, 125.9833°E)
Time: 21:13:04
(UTC+00:00)

ARIANE 5 R/B - Pass Details

Date: 27 October 2020
Orbit: 281 x 31874 km, 2.9° (Epoch: 25 November)

Event Time Altitude Azimuth Distance (km) Brightness Sun altitude
Exits shadow 20:03:30 18° 251° (WSW) 4,786 5.5 -20.7°
Maximum altitude 20:11:34 38° 195° (SSW) 1,543 3.5 -18.7°
Drops below altitude 10° 20:15:06 10° 123° (ESE) 1,836 5.0 -17.9°
Sets 20:16:28 0° 112° (ESE) 2,384 6.2 -17.5°
